Theta_e
321 322 322 324 326 325 325 324 323 324 323 323 325 324 325 325 330 332 334 338 339 336 339 341 336 334 333 332 329 327 327 330 332 333 333 333 333 334 334 334 335 335 335 335 336 337 338 338 338
321 321 322 324 326 326 325 323 323 322 321 327 330 330 330 328 331 334 339 337 338 337 339 340 336 334 332 332 329 328 329 328 328 328 327 325 324 323 322 321 320 320 321 325 331 334 335 336 337
320 321 324 325 326 326 323 323 322 321 321 325 328 329 331 331 332 337 337 337 337 337 340 339 335 334 332 332 330 329 329 330 330 329 328 328 328 328 328 327 325 323 322 321 319 318 319 324 332
320 322 322 326 325 324 323 321 320 321 327 328 329 330 324 329 334 337 337 336 338 336 336 335 334 334 332 332 331 331 331 331 331 330 330 329 329 328 328 328 326 325 324 322 321 320 318 317 316
320 322 324 326 324 323 323 321 321 322 322 323 325 328 326 328 332 335 337 337 338 336 335 336 335 334 332 331 331 331 331 331 330 331 330 331 330 328 326 324 323 324 323 324 323 322 322 320 318
321 322 324 324 323 322 322 322 322 321 322 322 322 323 324 326 333 334 337 336 335 335 335 335 335 335 333 332 331 331 331 330 330 330 330 330 329 328 329 330 331 331 332 333 333 333 333 333 333
320 322 321 322 321 321 321 321 322 322 322 322 321 322 323 325 332 335 337 335 334 334 335 335 334 336 334 334 333 332 331 331 330 330 329 330 331 331 332 332 332 331 331 331 331 331 330 331 330
319 321 321 321 322 321 320 320 320 320 321 320 320 321 322 325 330 334 335 334 334 333 333 334 334 335 335 335 334 332 331 331 331 331 331 332 332 332 331 330 329 327 323 320 318 316 313 311 309
318 321 321 321 321 320 318 320 320 318 320 319 320 320 321 324 327 333 335 334 334 333 333 334 333 332 334 333 332 332 332 332 331 331 330 330 329 327 323 316 310 307 307 306 306 305 305 305 304
318 320 319 319 320 320 319 319 319 318 319 319 318 319 320 326 328 331 332 333 333 332 332 332 331 331 331 331 332 331 330 329 327 324 319 313 309 308 307 307 306 305 304 304 304 304 304 304 304
315 318 318 318 319 319 320 320 319 319 320 319 320 320 320 320 327 331 331 332 330 330 331 330 329 330 331 329 328 326 322 316 312 309 307 307 306 306 304 303 304 304 304 304 304 304 304 304 303
312 312 314 315 318 319 318 316 317 318 319 319 317 316 317 320 325 327 329 331 329 330 329 329 328 328 328 324 316 311 309 307 305 305 304 304 303 303 304 304 304 304 304 304 303 302 302 302 302
311 310 311 312 314 316 316 317 318 316 316 314 315 314 314 319 324 328 327 329 328 328 329 329 329 327 320 312 308 305 304 303 303 303 302 303 304 304 304 304 304 303 302 302 302 302 302 302 302
308 309 309 309 310 312 315 315 316 317 318 316 315 316 315 315 322 327 327 329 328 329 328 328 325 318 311 308 305 304 303 303 303 303 303 304 304 304 304 304 303 301 301 301 301 302 302 303 303
307 308 308 308 309 311 311 312 314 314 315 317 317 315 314 317 318 318 325 328 328 328 327 326 321 312 309 306 305 304 303 303 303 303 303 303 304 304 304 303 301 301 301 301 302 303 303 304 304
307 307 308 309 309 309 311 309 311 312 313 314 315 316 315 313 316 316 319 326 328 327 327 325 317 311 308 306 305 303 303 303 303 303 303 303 304 304 303 301 301 301 301 302 303 303 303 303 303
307 306 308 308 308 309 311 310 310 311 311 312 313 314 314 313 313 315 315 318 326 327 325 323 313 310 307 306 304 303 303 303 303 303 303 303 304 304 301 300 300 301 302 303 303 303 303 302 303
306 306 307 307 307 307 309 310 310 310 307 309 310 311 311 310 311 313 315 315 319 325 323 318 312 310 307 306 304 304 303 303 303 303 303 303 304 301 300 300 301 302 303 303 302 302 302 302 304
305 305 305 305 305 304 305 306 306 306 305 306 306 307 307 307 310 311 312 313 314 322 322 315 312 310 308 306 305 304 303 303 303 303 303 303 302 300 300 300 302 302 303 302 302 301 302 304 304
306 306 306 306 305 305 306 306 306 306 306 305 305 306 306 306 306 309 309 311 312 314 320 316 311 310 309 307 306 304 304 303 303 303 303 303 300 300 300 301 302 302 302 301 300 302 304 304 303
305 305 305 305 305 305 304 305 306 306 304 304 305 305 305 305 305 305 307 307 308 310 315 316 311 310 309 308 306 305 304 303 303 303 303 302 300 300 300 302 302 302 300 300 302 304 304 302 302
305 305 305 305 305 307 303 309 307 307 305 305 305 304 303 304 303 304 304 306 307 308 310 313 311 310 309 308 306 305 304 303 303 303 303 300 299 300 301 302 301 299 300 303 304 303 302 302 301
304 303 304 305 305 305 305 306 308 305 306 307 307 304 304 303 302 303 303 305 307 307 308 310 310 309 309 308 306 305 304 304 303 303 301 299 300 300 301 301 299 300 303 303 303 303 302 301 300
302 304 304 303 303 307 305 305 308 308 307 307 304 304 304 303 303 302 302 303 304 305 305 308 309 308 308 307 306 305 303 304 303 303 300 300 300 300 301 299 299 303 302 302 302 302 301 301 300
303 304 311 313 309 311 300 302 306 308 307 306 304 304 303 302 302 302 301 302 304 304 304 306 308 308 307 306 306 304 304 304 302 302 299 300 300 301 300 298 303 302 302 302 301 301 301 301 301
303 305 311 314 314 311 304 309 307 305 305 304 304 303 303 305 305 303 301 300 301 302 303 306 307 307 306 306 305 304 304 303 302 300 299 300 300 300 298 300 303 303 301 301 300 300 300 300 300
304 305 305 308 298 307 309 309 307 309 305 306 306 305 304 304 304 304 302 301 300 301 302 305 306 306 305 306 305 304 304 303 302 300 300 299 300 300 298 302 303 303 302 301 300 300 300 300 299
302 302 306 308 309 310 309 306 309 309 306 304 307 305 304 304 304 303 302 300 300 299 301 303 304 305 305 305 305 304 304 302 301 299 300 299 300 298 298 302 302 303 302 302 301 301 300 300 300
302 303 303 305 307 309 309 308 308 306 305 304 304 304 304 303 303 304 303 301 300 299 299 301 302 304 305 305 304 304 303 302 300 299 300 299 300 298 297 301 302 302 302 302 302 301 301 301 301
299 301 302 306 306 306 306 307 307 305 304 304 304 304 303 303 303 303 303 302 301 299 299 300 301 303 304 304 304 304 302 301 300 300 300 299 299 297 297 299 301 301 301 302 302 302 302 301 301
Wind_Speed
12 9 4 2 5 5 11 6 5 5 3 3 2 5 8 14 5 1 3 11 15 20 20 18 15 14 15 13 13 13 12 11 11 10 9 8 8 8 7 6 5 4 4 4 3 4 4 5 6
12 9 5 3 7 11 11 10 10 12 6 2 3 6 7 6 3 1 9 13 17 18 20 18 15 15 14 15 14 13 12 11 10 10 9 8 7 7 6 6 5 4 3 2 2 3 5 6 6
13 11 7 5 10 15 8 9 13 13 5 7 4 4 3 1 3 7 8 17 17 18 20 18 16 15 15 16 15 14 12 11 10 9 8 7 7 7 6 5 4 3 3 3 4 4 5 6 7
10 7 4 10 16 14 18 1 3 8 3 5 4 4 3 6 4 9 15 18 17 17 18 18 16 15 15 15 15 14 14 12 11 10 9 8 7 7 6 5 6 6 7 6 7 7 7 8 9
14 6 9 12 21 18 9 15 2 6 2 4 4 2 3 5 8 14 17 18 17 17 16 16 17 17 16 15 15 15 14 12 11 10 10 8 7 7 7 7 7 6 6 6 7 7 8 8 10
10 8 9 18 19 14 14 14 13 16 17 9 6 8 5 7 12 17 18 18 15 18 18 17 18 18 17 16 16 15 15 14 13 11 9 8 7 7 7 7 7 8 8 8 8 8 9 10 11
14 9 18 18 13 14 15 8 18 21 16 15 7 8 4 11 15 18 22 21 19 19 21 20 22 21 20 19 18 15 14 12 11 9 9 9 8 8 8 8 8 9 10 11 12 13 14 14 16
13 7 16 13 15 18 4 10 14 15 20 15 9 7 11 12 19 21 23 20 22 21 21 23 23 23 21 17 14 13 12 11 10 10 9 8 8 7 8 8 8 8 9 9 10 11 12 13 14
8 8 13 19 15 10 6 8 7 5 13 6 8 10 10 11 22 24 26 25 26 25 26 24 27 24 19 17 15 13 12 11 10 9 9 8 8 8 7 7 8 9 10 12 14 15 17 18 19
13 12 17 9 13 9 10 11 15 7 10 10 10 15 16 13 26 30 31 31 30 28 26 24 25 22 19 17 16 14 13 11 10 9 9 8 8 8 9 10 12 13 14 16 17 18 19 20 22
8 16 16 15 14 14 16 12 12 12 14 18 14 12 18 17 25 30 31 32 28 27 27 25 21 19 19 17 16 15 13 12 11 11 10 10 10 11 11 10 11 13 14 17 19 21 22 23 24
10 16 21 18 16 12 9 7 12 18 26 14 12 11 14 20 23 30 29 29 28 28 24 24 22 21 19 18 17 15 14 13 12 12 11 11 10 9 9 11 13 15 17 19 21 21 22 22 22
11 16 16 17 23 22 13 17 20 17 15 14 12 10 12 17 21 23 23 26 25 25 27 28 26 23 22 19 16 15 14 14 13 12 11 11 10 10 11 12 14 17 18 18 18 18 19 20 21
3 10 17 17 23 16 15 25 25 23 24 22 22 22 18 16 21 21 25 29 28 26 27 27 26 25 22 18 16 15 14 13 13 12 12 11 11 11 12 14 16 17 17 17 17 18 19 20 20
8 12 14 19 16 10 15 23 21 27 28 25 25 24 21 24 19 25 27 29 30 30 30 28 28 26 22 19 17 16 15 14 14 14 13 12 12 12 13 15 16 16 16 16 17 17 18 20 21
4 4 6 2 6 11 11 17 14 17 28 31 32 31 27 24 26 23 24 28 29 30 31 31 30 28 25 22 19 18 17 16 16 15 13 13 12 13 14 15 15 15 15 15 16 17 19 21 23
5 8 9 10 3 2 13 10 13 17 20 22 22 25 29 30 27 30 26 27 30 32 33 33 32 30 27 24 22 20 18 18 17 15 14 13 13 13 14 14 14 14 14 15 17 19 21 23 24
6 6 7 9 1 3 9 15 21 18 9 16 20 25 27 28 31 38 36 32 31 34 36 35 35 32 30 27 24 22 20 19 18 16 14 13 13 14 14 13 13 13 15 16 18 20 21 24 24
4 7 13 14 7 6 13 14 23 20 17 21 24 28 30 27 30 35 34 40 36 37 40 40 39 37 35 31 28 24 22 21 19 17 15 15 14 13 13 12 12 13 15 17 19 20 22 21 22
12 14 17 18 12 11 15 16 22 22 22 27 31 32 33 33 33 38 32 38 43 42 43 43 42 41 37 33 29 25 22 22 20 18 16 15 14 13 11 11 12 14 16 18 19 19 19 19 17
12 14 14 13 13 13 13 14 14 10 12 20 30 36 32 35 35 34 40 35 42 48 47 47 46 43 40 36 32 27 24 22 21 20 17 15 13 11 10 11 12 15 16 18 19 18 17 14 13
13 9 14 11 6 5 2 7 10 13 12 13 23 21 29 33 34 33 38 44 40 47 49 49 48 46 43 39 35 30 25 25 21 19 17 15 12 10 10 11 13 15 16 17 17 15 13 11 10
4 1 4 5 7 7 10 6 4 5 10 17 10 5 13 19 24 30 33 39 45 42 50 51 50 48 46 41 37 31 27 24 21 20 17 14 11 10 10 11 12 14 16 16 13 11 9 8 7
2 1 1 1 3 6 9 9 6 6 6 7 6 20 18 16 13 18 24 31 33 42 45 51 52 51 48 44 39 34 29 26 24 21 17 13 11 10 9 10 11 13 13 11 9 8 7 7 7
5 3 3 4 4 7 1 5 8 15 14 12 16 23 19 16 16 15 17 26 32 40 45 51 52 51 49 46 41 35 30 26 23 20 17 13 11 10 8 8 9 11 10 9 8 7 7 7 6
7 4 4 5 3 4 1 6 2 8 9 6 10 13 20 28 25 17 13 18 29 36 43 49 51 51 50 48 42 36 31 28 26 22 17 14 12 10 8 6 6 6 7 7 7 5 5 4 3
4 7 3 4 1 4 6 4 10 12 8 9 13 20 20 33 35 27 13 13 21 31 40 47 49 50 49 47 43 38 33 30 27 23 18 15 13 11 8 5 2 5 7 7 6 4 3 4 4
3 1 3 3 4 6 4 4 6 2 6 3 10 16 21 31 36 32 19 11 14 23 33 43 48 49 49 47 42 38 33 31 27 22 18 15 14 11 9 7 2 4 6 7 6 6 5 5 7
3 3 3 3 4 5 5 4 2 2 7 11 9 15 25 28 31 34 25 15 12 17 27 40 46 48 49 47 43 38 34 32 28 22 19 17 15 12 11 9 5 1 3 5 6 7 7 7 6
4 5 5 8 7 5 5 11 11 12 9 15 19 26 28 26 27 34 28 20 13 15 22 32 44 48 48 46 42 38 35 32 28 23 20 18 16 14 12 10 8 3 1 2 5 6 6 6 6
Wind_Direction
219 223 201 181 232 242 237 231 252 220 226 221 190 211 232 244 222 309 161 177 160 163 166 171 172 166 170 170 166 162 162 161 159 156 154 154 153 152 153 155 154 152 165 169 178 185 194 210 224
209 201 183 209 243 230 237 224 224 236 238 242 219 242 241 228 221 148 146 167 159 159 166 174 170 169 172 171 167 164 160 159 157 155 153 151 150 154 158 163 165 169 183 194 198 218 236 242 249
199 186 199 225 234 233 254 198 236 231 230 227 231 234 271 226 193 167 176 162 159 161 168 177 171 171 171 172 171 168 167 165 166 164 164 167 171 177 181 189 199 216 237 243 248 244 249 255 258
182 181 228 237 231 239 239 316 241 211 156 171 212 226 254 228 168 170 170 163 159 166 173 177 174 173 174 176 176 175 173 171 172 176 180 186 194 202 211 219 223 222 229 239 250 252 250 254 257
172 199 228 237 243 241 235 240 223 180 157 205 204 216 249 241 201 174 169 168 167 169 172 178 177 177 177 179 180 180 180 182 182 181 192 199 210 224 234 245 259 262 261 256 258 264 267 268 264
183 220 228 233 236 243 248 240 243 249 254 238 254 260 250 229 194 176 172 173 184 182 184 190 184 180 180 181 183 188 188 191 197 202 207 218 228 236 245 252 258 263 268 270 270 271 273 269 269
221 217 236 249 258 251 238 231 236 247 249 238 242 248 230 209 202 181 178 178 190 195 196 190 189 184 185 187 188 191 193 195 204 212 220 230 239 245 251 255 261 267 270 271 276 275 280 281 282
219 247 245 241 244 249 220 223 242 245 253 254 224 240 233 215 204 188 185 188 197 197 205 207 195 191 188 191 191 195 198 202 207 216 224 232 239 242 249 256 261 267 274 278 281 284 287 290 291
200 234 238 232 236 234 186 222 215 240 237 223 217 234 233 194 201 188 191 195 199 199 201 204 203 202 194 193 192 195 199 205 208 216 222 229 234 236 243 256 269 278 283 287 289 290 291 292 291
211 230 242 242 250 242 223 247 254 237 225 241 243 245 236 207 200 198 198 203 205 208 205 207 200 201 197 192 192 194 199 205 210 214 219 224 233 243 255 267 276 282 287 291 293 293 294 293 292
219 241 238 248 259 252 258 255 240 246 251 251 257 256 233 224 208 207 206 208 210 211 202 203 200 198 197 193 192 195 200 206 214 221 230 237 245 254 264 272 280 288 292 294 296 296 296 295 294
245 243 253 251 256 253 250 267 251 246 251 268 258 250 234 224 217 212 211 207 208 210 211 205 196 201 194 190 194 201 209 217 223 229 233 238 243 249 261 275 285 290 293 296 296 296 296 295 295
240 256 257 260 254 257 263 254 255 252 252 241 249 261 249 233 228 217 214 215 221 216 207 197 194 195 195 197 203 210 215 218 222 223 225 230 239 254 269 279 286 292 296 297 300 303 303 302 301
301 275 270 269 258 251 254 256 251 252 253 252 257 261 256 251 232 219 219 218 212 208 204 195 194 194 198 204 209 213 215 216 216 217 222 232 246 260 273 285 293 297 299 304 306 307 307 304 302
280 283 275 257 252 250 241 255 245 255 249 249 248 253 251 249 233 236 232 225 220 210 201 200 198 199 202 205 209 214 215 214 215 218 225 237 252 267 279 290 297 301 305 308 309 310 309 308 309
254 254 279 38 254 234 205 265 261 250 243 245 250 249 246 243 242 244 236 231 227 213 204 204 205 204 205 207 210 212 213 214 218 223 231 245 259 273 287 295 301 306 309 310 311 312 313 313 316
215 261 251 294 246 249 212 264 272 255 248 250 250 246 244 245 239 238 238 237 228 218 210 209 208 207 207 207 208 211 214 217 221 227 236 249 263 278 288 297 303 307 310 311 313 316 317 317 317
233 236 241 256 42 235 245 256 272 269 274 265 263 257 251 246 242 239 237 235 230 220 216 213 211 209 209 209 209 213 216 220 225 230 239 251 264 277 291 300 305 308 309 312 314 315 317 318 321
247 258 267 262 266 278 264 272 278 276 265 258 257 256 254 250 254 246 239 230 228 219 216 214 212 211 211 210 210 213 220 222 226 231 239 250 266 282 290 295 299 302 307 309 312 315 319 323 325
249 263 268 280 280 244 274 275 274 271 261 257 255 255 250 248 246 245 240 231 228 224 217 216 214 214 213 214 216 218 222 222 226 232 238 250 265 276 284 291 297 302 306 309 313 317 321 321 329
243 248 260 259 299 258 279 273 252 269 241 258 255 250 253 247 243 238 236 232 226 222 218 216 215 215 215 215 215 217 218 221 226 228 234 247 263 274 279 287 297 304 309 311 313 316 316 320 324
273 242 251 274 270 270 280 293 273 285 283 270 268 250 251 251 246 240 236 230 227 223 219 218 216 215 215 216 216 220 226 225 228 227 234 246 259 267 276 289 300 306 308 308 310 313 315 319 320
249 133 234 258 251 300 238 254 261 273 279 273 290 312 299 282 257 252 233 234 227 224 221 217 216 216 216 216 216 217 219 222 224 224 232 242 255 262 274 290 301 306 308 310 310 314 314 313 327
357 228 174 147 249 252 245 233 262 265 253 308 340 318 315 316 326 269 243 235 228 221 221 215 215 215 215 215 213 216 218 220 219 220 228 239 248 256 270 290 302 311 312 310 311 306 300 308 312
233 250 278 234 207 252 59 235 266 272 278 315 318 328 332 335 339 306 258 232 226 218 216 213 213 213 213 212 212 213 216 219 220 222 226 237 242 248 264 288 310 316 317 323 314 307 315 313 314
207 228 235 270 264 318 240 242 186 255 327 319 11 24 36 29 5 333 284 249 231 223 216 212 211 212 211 209 210 212 215 216 216 219 224 230 232 241 255 275 306 331 346 341 327 323 313 314 324
164 211 269 281 126 269 244 269 267 271 83 51 54 46 29 15 9 357 318 262 238 228 218 213 210 211 209 208 209 210 212 213 215 217 221 224 224 229 235 247 289 8 17 7 353 336 358 358 360
257 24 187 208 258 254 228 259 241 32 45 347 8 29 13 0 3 2 348 298 255 234 222 215 213 212 208 208 210 211 211 212 213 215 220 221 219 220 224 226 235 35 21 18 11 22 34 35 31
174 220 233 277 231 262 289 249 266 35 2 9 10 357 346 350 356 358 356 329 275 244 228 218 213 210 208 207 209 209 210 209 211 214 219 219 218 217 221 221 225 96 15 4 10 29 42 41 39
293 305 270 245 232 243 273 261 305 11 32 5 346 338 337 336 337 344 345 336 298 256 235 224 216 212 209 207 207 208 208 209 211 215 218 217 216 216 218 220 225 192 212 328 354 7 23 34 39